This demonstration page uses our WeatherBlox Daily Observations layout. Learn more.

Hourly Observations for August 24, 2017

Temp ( °F °C ) Dew Point ( °F °C ) Humidity (%) Winds ( mph kmh ) Pressure ( in mb ) Visibility ( mi km ) Precip ( " mm )
12:15 am 00:15 Partly Cloudy 68 20 63 17 83 83 Calm 29.97 1015 10 16.09344 0 0
12:35 am 00:35 Cloudy 68 20 63 17 83 83 Calm 29.97 1015 10 16.09344 0 0
12:55 am 00:55 Partly Cloudy 64 18 63 17 94 94 NNW 5 7 29.94 1014 10 16.09344 0 0
1:15 am 01:15 Clear 66 19 61 16 83 83 N 6 9 29.94 1014 10 16.09344 0 0
1:35 am 01:35 Clear 68 20 61 16 78 78 N 5 7 29.94 1014 10 16.09344 0 0
1:55 am 01:55 Clear 66 19 61 16 83 83 Calm 29.94 1014 10 16.09344 0 0
2:15 am 02:15 Clear 64 18 61 16 88 88 Calm 29.94 1014 10 16.09344 0 0
2:35 am 02:35 Clear 63 17 61 16 94 94 Calm 29.94 1014 10 16.09344 0 0
2:55 am 02:55 Clear 64 18 61 16 88 88 Calm 29.94 1014 10 16.09344 0 0
3:15 am 03:15 Clear 64 18 61 16 88 88 Calm 29.94 1014 10 16.09344 0 0
3:35 am 03:35 Partly Cloudy 63 17 61 16 94 94 WNW 3 6 29.94 1014 10 16.09344 0 0
3:55 am 03:55 Mostly Cloudy 63 17 61 16 94 94 Calm 29.94 1014 10 16.09344 0 0
4:15 am 04:15 Cloudy 64 18 61 16 88 88 Calm 29.94 1014 10 16.09344 0 0
4:35 am 04:35 Cloudy 63 17 63 17 100 100 Calm 29.94 1014 10 16.09344 0 0
4:55 am 04:55 Cloudy 64 18 63 17 94 94 Calm 29.94 1014 10 16.09344 0 0
5:15 am 05:15 Cloudy 66 19 61 16 83 83 N 5 7 29.94 1014 10 16.09344 0 0
5:35 am 05:35 Cloudy 66 19 61 16 83 83 N 5 7 29.97 1015 10 16.09344 0 0
5:55 am 05:55 Cloudy 66 19 61 16 83 83 N 3 6 29.97 1015 10 16.09344 0 0
6:15 am 06:15 Cloudy 68 20 61 16 78 78 Calm 29.97 1015 10 16.09344 0 0
6:35 am 06:35 Cloudy 68 20 59 15 73 73 NNE 5 7 30 1016 10 16.09344 0 0
6:55 am 06:55 Cloudy 68 20 59 15 73 73 N 6 9 30 1016 10 16.09344 0 0
7:15 am 07:15 Cloudy 66 19 61 16 83 83 N 7 11 30 1016 10 16.09344 0 0
7:35 am 07:35 Cloudy 66 19 61 16 83 83 N 6 9 30 1016 10 16.09344 0 0
7:55 am 07:55 Partly Cloudy 68 20 61 16 78 78 N 5 7 30 1016 10 16.09344 0 0
8:15 am 08:15 Partly Cloudy 70 21 59 15 69 69 N 6 9 30 1016 10 16.09344 0 0
8:35 am 08:35 Sunny 70 21 61 16 73 73 N 3 6 30 1016 10 16.09344 0 0
8:55 am 08:55 Mostly Cloudy 70 21 61 16 73 73 NNE 6 9 30 1016 10 16.09344 0 0
9:15 am 09:15 Mostly Cloudy 70 21 59 15 69 69 NNE 8 13 30 1016 10 16.09344 0 0
9:35 am 09:35 Sunny 72 22 59 15 65 65 NNE 7 11 30 1016 10 16.09344 0 0
9:55 am 09:55 Sunny 73 23 59 15 61 61 NE 7 11 30 1016 10 16.09344 0 0
10:15 am 10:15 Partly Cloudy 73 23 59 15 61 61 NE 10 17 30 1016 10 16.09344 0 0
10:35 am 10:35 Mostly Cloudy 73 23 59 15 61 61 NNE 8 13 30 1016 10 16.09344 0 0
10:55 am 10:55 Cloudy 73 23 59 15 61 61 NNE 10 17 30 1016 10 16.09344 0 0
11:15 am 11:15 Cloudy 73 23 59 15 61 61 NE 8 13 30.03 1017 10 16.09344 0 0
11:35 am 11:35 Cloudy 75 24 59 15 57 57 NNE 9 15 30.03 1017 10 16.09344 0 0
11:55 am 11:55 Cloudy 77 25 55 13 47 47 NE 10 17 30.03 1017 10 16.09344 0 0
12:15 pm 12:15 Mostly Cloudy 77 25 57 14 51 51 N 3 6 30.03 1017 10 16.09344 0 0
12:35 pm 12:35 Mostly Cloudy 77 25 57 14 51 51 NNE 8 13 30.03 1017 10 16.09344 0 0
12:55 pm 12:55 Mostly Cloudy 77 25 57 14 51 51 NE 6 9 30 1016 10 16.09344 0 0
1:15 pm 13:15 Cloudy 79 26 57 14 48 48 NE 3 6 30 1016 10 16.09344 0 0
1:35 pm 13:35 Mostly Cloudy 79 26 54 12 42 42 E 6 9 30 1016 10 16.09344 0 0
1:55 pm 13:55 Sunny 79 26 55 13 45 45 NNE 5 7 30 1016 10 16.09344 0 0
2:15 pm 14:15 Partly Cloudy 81 27 57 14 45 45 ENE 3 6 30 1016 10 16.09344 0 0
2:35 pm 14:35 Mostly Cloudy 79 26 57 14 48 48 Calm 30 1016 10 16.09344 0 0
2:55 pm 14:55 Partly Cloudy 79 26 59 15 51 51 NNE 3 6 30 1016 10 16.09344 0 0
3:15 pm 15:15 Partly Cloudy 79 26 59 15 51 51 NNE 7 11 30 1016 10 16.09344 0 0
3:35 pm 15:35 Partly Cloudy 81 27 59 15 48 48 Calm 30 1016 10 16.09344 0 0
3:55 pm 15:55 Mostly Cloudy 79 26 57 14 48 48 NNW 3 6 30 1016 10 16.09344 0 0
4:15 pm 16:15 Cloudy 79 26 57 14 48 48 Calm 30 1016 10 16.09344 0 0
4:35 pm 16:35 Cloudy 81 27 59 15 48 48 Calm 29.97 1015 10 16.09344 0 0
4:55 pm 16:55 Partly Cloudy 79 26 57 14 48 48 N 3 6 29.97 1015 10 16.09344 0 0
5:15 pm 17:15 Mostly Cloudy 79 26 57 14 48 48 Calm 29.97 1015 10 16.09344 0 0
5:35 pm 17:35 Cloudy 81 27 59 15 48 48 SSW 3 6 29.97 1015 10 16.09344 0 0
5:55 pm 17:55 Cloudy 81 27 59 15 48 48 W 3 6 29.97 1015 10 16.09344 0 0
6:15 pm 18:15 Mostly Cloudy 79 26 57 14 48 48 Calm 29.97 1015 10 16.09344 0 0
6:35 pm 18:35 Partly Cloudy 79 26 59 15 51 51 Calm 29.97 1015 10 16.09344 0 0
6:55 pm 18:55 Sunny 79 26 61 16 54 54 NE 9 15 29.97 1015 10 16.09344 0 0
7:15 pm 19:15 Sunny 79 26 61 16 54 54 Calm 29.97 1015 10 16.09344 0 0
7:35 pm 19:35 Sunny 73 23 61 16 65 65 Calm 29.97 1015 10 16.09344 0 0
7:55 pm 19:55 Clear 75 24 61 16 61 61 Calm 29.97 1015 10 16.09344 0 0
8:15 pm 20:15 Partly Cloudy 73 23 61 16 65 65 Calm 29.97 1015 10 16.09344 0 0
8:35 pm 20:35 Mostly Cloudy 72 22 63 17 73 73 Calm 29.97 1015 10 16.09344 0 0
8:55 pm 20:55 Partly Cloudy 70 21 64 18 83 83 Calm 30 1016 10 16.09344 0 0
9:15 pm 21:15 Mostly Cloudy 70 21 63 17 78 78 Calm 30 1016 10 16.09344 0 0
9:35 pm 21:35 Cloudy 70 21 64 18 83 83 Calm 30 1016 10 16.09344 0 0
9:55 pm 21:55 Cloudy 72 22 64 18 78 78 N 6 9 30 1016 10 16.09344 0 0
10:15 pm 22:15 Cloudy with Light Rain 70 21 64 18 83 83 NW 7 11 30.03 1017 10 16.09344 0 0
10:35 pm 22:35 Cloudy 70 21 64 18 83 83 NNE 5 7 30 1016 10 16.09344 0 0
10:55 pm 22:55 Mostly Cloudy 68 20 64 18 88 88 N 6 9 30 1016 10 16.09344 0 0
11:15 pm 23:15 Cloudy 70 21 64 18 83 83 NW 18 30 30.03 1017 10 16.09344 0 0
11:35 pm 23:35 Cloudy with Heavy Rain 64 18 63 17 94 94 N 7 11 30.03 1017 5 8.04672 0.1 2.54
11:55 pm 23:55 Cloudy 64 18 64 18 100 100 NNE 3 6 30.03 1017 10 16.09344 0.11 2.794

Powered by AerisWeather